Location: Koubel-Koundia
(14.9853°N, 3.0310°W)
Time: 15:00:57
(UTC+00:00)

Daily predictions for brighter satellites

Satellite Brightness Start Highest point End
(mag) Time Altitude Azimuth Time Altitude Azimuth Time Altitude Azimuth
Meteor 1-5 Rocket 4.4 17:57:24 10° N 18:03:05 53° E 18:08:36 10° SSE
H-2A R/B 4.0 18:06:02 10° ENE 18:07:50 12° E 18:09:37 10° ESE
Aureole 3 Rocket 3.3 18:05:49 10° SSE 18:09:00 36° E 18:13:03 10° NNE
Cosmos 1515 Rocket 3.6 18:05:05 10° S 18:09:32 88° ESE 18:13:59 10° N
SL-27 R/B 3.7 18:07:00 10° SSE 18:09:46 23° E 18:12:35 10° NE
Cosmos 2278 4.0 18:08:47 10° N 18:14:11 46° ENE 18:19:34 10° SE
ATLAS 5 CENTAUR R/B 2.7 17:55:26 10° WSW 18:15:11 88° S 18:19:40 11° ENE
Cosmos 2228 Rocket 4.0 18:12:52 10° SSE 18:16:36 28° E 18:20:19 10° NNE
BREEZE-M DEB (TANK) 3.9 18:14:47 10° NNW 18:17:20 21° NE 18:19:14 11° E
CZ-2C R/B 3.1 18:15:16 10° N 18:20:21 63° WNW 18:25:31 10° SSW
SL-24 R/B - RUBIN 2 3.5 18:17:29 10° NNW 18:21:44 61° ENE 18:26:06 10° SSE
CZ-2D R/B 3.2 18:18:17 10° SSE 18:22:07 85° E 18:25:57 10° N
GPS 2-15 Rocket1 3.1 18:20:21 10° WNW 18:25:02 70° N 18:29:11 13° E
CZ-4B R/B 3.4 18:20:37 10° SSE 18:25:49 46° ENE 18:30:56 10° N
Cosmos 1655 Rocket 4.2 18:20:45 10° N 18:26:50 49° E 18:32:52 10° SSE
Meteosat 1 Rocket2 4.3 18:24:57 10° W 18:29:09 29° NNW 18:32:01 13° NE
Okean 1 4.4 18:28:18 10° SSE 18:31:33 24° E 18:33:22 18° NE
MOS 1-B 4.3 18:26:05 10° SSE 18:31:51 78° ENE 18:37:36 10° N
SWIFT 2.8 18:29:41 10° W 18:33:49 58° SSW 18:37:59 10° ESE
Meteor 1-27 Rocket 3.9 18:29:33 10° S 18:35:05 76° W 18:40:35 10° N
SJ-11-01 4.5 18:31:10 10° SSE 18:35:44 48° ENE 18:40:17 10° N
YAOGAN 1 3.9 18:34:17 10° ESE 18:36:47 19° E 18:36:47 19° E
Cosmos 1833 4.3 18:32:17 10° SSW 18:37:52 80° WNW 18:43:28 10° NNE
PAYLOAD B 4.5 18:35:21 10° S 18:40:56 75° WSW 18:46:32 10° NNW
CZ-4C R/B 3.8 18:38:53 10° N 18:42:12 52° WNW 18:45:35 10° SSW
Cosmos 2298 Rocket 4.3 18:40:27 10° N 18:45:33 46° ENE 18:50:37 10° SSE
IRAS Rocket 4.2 18:40:44 10° NNE 18:46:12 65° ESE 18:51:43 10° S
ISS -1.8 18:45:11 10° N 18:46:20 16° NNE 18:46:20 16° NNE
BREEZE-M DEB (TANK) 2.0 18:47:04 10° SW 18:49:16 81° SE 18:50:36 32° NE
SL-08 RB Rocket 3.8 18:49:23 10° SSE 18:53:53 52° ENE 18:58:21 10° N
COSMOS 2487 3.1 18:56:42 10° S 18:59:10 35° SE 18:59:10 35° SE
Cosmos 1818 3.6 18:57:06 10° N 19:02:21 51° ENE 19:07:35 10° SE
Cosmos 1536 2.7 19:01:16 20° N 19:03:51 64° E 19:07:48 10° SSE
GPS 2-12 Rocket1 3.3 18:59:47 10° W 19:04:12 52° N 19:05:14 42° NE
Aurora 2 Rocket 3.2 19:00:16 10° WNW 19:05:02 77° SSW 19:09:33 21° ESE
USA 234 4.4 19:10:00 23° NNE 19:10:00 23° NNE 19:13:38 10° N
Okean O Rocket 2.0 19:04:17 10° S 19:08:40 64° WSW 19:13:04 10° NNW
H-2A R/B 3.8 19:05:04 10° SSW 19:09:45 33° W 19:14:20 10° NW
Cosmos 158 Rocket 3.8 19:05:19 10° S 19:10:06 59° ESE 19:11:10 47° NE
GPS 2-04 Rocket1 3.8 19:10:41 10° NW 19:13:24 32° N 19:13:24 32° N
Cosmos 1933 Rocket 4.1 19:10:57 10° NNW 19:15:11 58° W 19:19:26 10° S
CZ-4C R/B 3.3 19:11:08 10° NNW 19:19:30 79° WSW 19:28:14 10° SSE
Cosmos 2322 Rocket 3.8 19:15:26 10° N 19:27:14 - SSE 19:17:09 19° N
Cosmos 2150 Rocket 4.1 19:15:43 10° NNW 19:20:57 75° WSW 19:26:16 10° S
CZ-4 R/B 1.9 19:17:15 10° SSE 19:20:21 48° SSE 19:20:21 48° SSE
ARGOS 4.1 19:17:10 10° S 19:22:23 49° W 19:27:36 10° NNW
Cosmos 1417 Rocket 4.5 19:18:57 10° S 19:25:09 61° E 19:26:37 48° NE
Cosmos 1125 Rocket 3.7 19:21:45 10° NNW 19:26:59 71° WSW 19:32:15 10° S
Meteor 2-4 Rocket 3.7 19:22:31 10° S 19:28:02 61° E 19:28:06 61° E
Meteor 1-18 Rocket 4.3 19:26:25 10° S 19:32:16 80° W 19:35:07 32° N
CZ-3B R/B 4.2 19:31:35 10° SW 19:39:40 34° SSE 19:41:25 31° SE
SL-16 R/B 2.3 19:35:45 10° NNW 19:41:22 74° WSW 19:47:01 10° S
H-2A R/B 3.7 19:41:46 23° NNW 19:43:39 31° WNW 19:47:33 10° SW
Hubble Space Telescope 2.5 19:41:46 10° SW 19:43:57 28° SSW 19:43:57 28° SSW
CZ-3C R/B 3.2 19:48:31 10° SW 19:52:59 45° SE 19:54:05 43° ESE
CZ-3C R/B 3.2 19:48:31 10° SW 19:52:59 45° SE 19:54:04 43° ESE
CZ-3C R/B 3.2 19:48:32 10° SW 19:52:59 45° SE 19:54:05 43° ESE
CZ-3C R/B 3.2 19:48:32 10° SW 19:52:59 45° SE 19:54:03 43° ESE
CZ-3C R/B 3.2 19:48:32 10° SW 19:52:59 45° SE 19:54:04 43° ESE
Ariane H10+ 4.2 19:38:28 10° WSW 19:53:32 32° SSW 19:55:02 28° SSE
Cosmos 1244 Rocket 4.5 19:54:05 79° S 19:54:05 79° S 20:00:01 10° S
Delta 198 4.5 19:50:09 10° WNW 19:56:15 79° WNW 19:56:15 79° WNW
BREEZE M DEB (TANK) 4.4 19:56:44 10° NW 20:00:57 29° W 20:00:57 29° W
ARIANE 5 R/B 4.0 20:06:17 10° SW 20:07:45 20° SSW 20:07:45 20° SSW
Cosmos 2297 Rocket 4.4 20:23:30 10° SSW 20:24:41 17° SSW 20:24:41 17° SSW
